Weather History for Jamestown, NY

Change the Weather History Date:

Thursday, November 15, 2012

  Actual Average Record
Temperature  
Mean Temperature 35 °F -  
Max Temperature 44 °F 47 °F 70 °F (1989)
Min Temperature 26 °F 28 °F 14 °F (1996)
Degree Days  
Heating Degree Days 30    
Moisture  
Dew Point 23 °F    
Average Humidity 65    
Maximum Humidity 80    
Minimum Humidity 39    
Precipitation  
Precipitation 0.00 in - - ()
Sea Level Pressure  
Sea Level Pressure 30.32 in    
Wind  
Wind Speed 4 mph (ENE)    
Max Wind Speed 10 mph    
Max Gust Speed -    
Visibility 10 miles    
Events      
Averages and records for this station are not official NWS values.
T = Trace of Precipitation, MM = Missing Value Source: NWS Daily Summary

Daily Weather History Graph

Daily Weather History Graph

Search for Another Location

Airport:

Trip Planner

Search our weather history database for the weather conditions in past years. The results will help you decide how hot, cold, wet, or windy it might be!

Date:

Astronomy

Nov. 15, 2012 Rise Set
Actual Time 7:07 AM EST 4:55 PM EST
Civil Twilight 6:37 AM EST 5:25 PM EST
Nautical Twilight 6:03 AM EST 5:59 PM EST
Astronomical Twilight 5:30 AM EST 6:32 PM EST
Moon 9:03 AM EST (11/15) 6:43 PM EST (11/15)
Length of Visible Light 10h 47m
Length of Day
9h 47m
Waxing Crescent, 5% of the Moon is Illuminated
Nov 15
Waxing Crescent
Nov 20
First Quarter
Nov 28
Full
Dec 6
Last Quarter
Dec 13
New

Hourly Weather History & Observations

Time (EST) Temp. Windchill Dew Point Humidity Pressure Visibility Wind Dir Wind Speed Gust Speed Precip Events Conditions
12:15 AM 28.4 °F 24.6 °F 21.2 °F 74% 30.39 in 10.0 mi East 3.5 mph - N/A   Clear
12:35 AM 28.4 °F 23.3 °F 21.2 °F 74% 30.38 in 10.0 mi East 4.6 mph - N/A   Clear
12:55 AM 28.4 °F 23.3 °F 21.2 °F 74% 30.38 in 10.0 mi East 4.6 mph - N/A   Clear
1:15 AM 28.4 °F 23.3 °F 21.2 °F 74% 30.37 in 10.0 mi ENE 4.6 mph - N/A   Clear
1:35 AM 28.4 °F 24.6 °F 21.2 °F 74% 30.37 in 10.0 mi ENE 3.5 mph - N/A   Clear
1:55 AM 28.4 °F 24.6 °F 21.2 °F 74% 30.37 in 10.0 mi NNE 3.5 mph - N/A   Clear
2:15 AM 28.4 °F 23.3 °F 21.2 °F 74% 30.37 in 10.0 mi NE 4.6 mph - N/A   Clear
2:35 AM 28.4 °F 23.3 °F 21.2 °F 74% 30.36 in 10.0 mi ENE 4.6 mph - N/A   Clear
2:55 AM 28.4 °F 24.6 °F 21.2 °F 74% 30.37 in 10.0 mi ENE 3.5 mph - N/A   Clear
3:15 AM 28.4 °F - 21.2 °F 74% 30.37 in 10.0 mi Calm Calm - N/A   Clear
3:35 AM 28.4 °F 23.3 °F 21.2 °F 74% 30.37 in 10.0 mi East 4.6 mph - N/A   Clear
3:55 AM 28.4 °F 24.6 °F 21.2 °F 74% 30.37 in 10.0 mi East 3.5 mph - N/A   Clear
4:15 AM 26.6 °F 22.6 °F 19.4 °F 74% 30.36 in 10.0 mi ESE 3.5 mph - N/A   Clear
4:35 AM 28.4 °F 19.7 °F 19.4 °F 69% 30.35 in 10.0 mi ESE 9.2 mph - N/A   Clear
4:55 AM 26.6 °F 21.2 °F 21.2 °F 80% 30.35 in 10.0 mi ESE 4.6 mph - N/A   Clear
5:15 AM 28.4 °F 23.3 °F 21.2 °F 74% 30.35 in 10.0 mi East 4.6 mph - N/A   Clear
5:35 AM 28.4 °F 22.2 °F 19.4 °F 69% 30.35 in 10.0 mi ENE 5.8 mph - N/A   Clear
5:55 AM 26.6 °F 20.0 °F 21.2 °F 80% 30.34 in 10.0 mi East 5.8 mph - N/A   Clear
6:15 AM 28.4 °F 22.2 °F 21.2 °F 74% 30.34 in 10.0 mi East 5.8 mph - N/A   Clear
6:35 AM 28.4 °F 22.2 °F 19.4 °F 69% 30.34 in 10.0 mi East 5.8 mph - N/A   Clear
6:55 AM 28.4 °F 22.2 °F 21.2 °F 74% 30.33 in 10.0 mi East 5.8 mph - N/A   Clear
7:15 AM 28.4 °F 23.3 °F 21.2 °F 74% 30.33 in 10.0 mi East 4.6 mph - N/A   Clear
7:35 AM 28.4 °F 21.2 °F 21.2 °F 74% 30.33 in 10.0 mi East 6.9 mph - N/A   Clear
7:55 AM 28.4 °F 22.2 °F 21.2 °F 74% 30.33 in 10.0 mi East 5.8 mph - N/A   Clear
8:15 AM 28.4 °F 24.6 °F 21.2 °F 74% 30.34 in 10.0 mi East 3.5 mph - N/A   Clear
8:35 AM 30.2 °F 26.7 °F 21.2 °F 69% 30.35 in 10.0 mi East 3.5 mph - N/A   Clear
8:55 AM 30.2 °F - 21.2 °F 69% 30.35 in 10.0 mi Calm Calm - N/A   Clear
9:15 AM 33.8 °F 28.6 °F 23.0 °F 65% 30.35 in 10.0 mi South 5.8 mph - N/A   Clear
9:35 AM 33.8 °F 28.6 °F 23.0 °F 65% 30.35 in 10.0 mi SSE 5.8 mph - N/A   Clear
9:55 AM 33.8 °F 27.7 °F 23.0 °F 65% 30.35 in 10.0 mi South 6.9 mph - N/A   Clear
10:15 AM 35.6 °F 30.7 °F 23.0 °F 60% 30.34 in 10.0 mi South 5.8 mph - N/A   Clear
10:35 AM 35.6 °F - 23.0 °F 60% 30.34 in 10.0 mi Calm Calm - N/A   Clear
10:55 AM 37.4 °F 33.8 °F 24.8 °F 60% 30.34 in 10.0 mi South 4.6 mph - N/A   Clear
11:15 AM 37.4 °F 32.1 °F 23.0 °F 56% 30.33 in 10.0 mi South 6.9 mph - N/A   Clear
11:35 AM 37.4 °F 32.1 °F 24.8 °F 60% 30.32 in 10.0 mi SE 6.9 mph - N/A   Clear
11:55 AM 39.2 °F 37.0 °F 24.8 °F 56% 30.31 in 10.0 mi SSW 3.5 mph - N/A   Clear
12:15 PM 39.2 °F 37.0 °F 24.8 °F 56% 30.30 in 10.0 mi South 3.5 mph - N/A   Clear
12:35 PM 39.2 °F - 24.8 °F 56% 30.30 in 10.0 mi Calm Calm - N/A   Clear
12:55 PM 41.0 °F 39.0 °F 24.8 °F 53% 30.30 in 10.0 mi East 3.5 mph - N/A   Clear
1:15 PM 42.8 °F 40.1 °F 23.0 °F 46% 30.29 in 10.0 mi SSE 4.6 mph - N/A   Clear
1:35 PM 42.8 °F 40.1 °F 21.2 °F 42% 30.29 in 10.0 mi SSE 4.6 mph - N/A   Clear
1:55 PM 42.8 °F - 21.2 °F 42% 30.29 in 10.0 mi Calm Calm - N/A   Clear
2:15 PM 42.8 °F 40.1 °F 21.2 °F 42% 30.28 in 10.0 mi SSW 4.6 mph - N/A   Clear
2:35 PM 41.0 °F - 21.2 °F 45% 30.28 in 10.0 mi Calm Calm - N/A   Clear
2:55 PM 42.8 °F - 21.2 °F 42% 30.28 in 10.0 mi Calm Calm - N/A   Clear
3:15 PM 44.6 °F 42.2 °F 21.2 °F 39% 30.28 in 10.0 mi South 4.6 mph - N/A   Clear
3:35 PM 42.8 °F - 21.2 °F 42% 30.28 in 10.0 mi Calm Calm - N/A   Clear
3:55 PM 44.6 °F - 23.0 °F 43% 30.28 in 10.0 mi Calm Calm - N/A   Clear
4:15 PM 42.8 °F 41.1 °F 21.2 °F 42% 30.28 in 10.0 mi NNE 3.5 mph - N/A   Clear
4:35 PM 42.8 °F - 21.2 °F 42% 30.28 in 10.0 mi Calm Calm - N/A   Clear
4:55 PM 41.0 °F - 21.2 °F 45% 30.28 in 10.0 mi Calm Calm - N/A   Clear
5:15 PM 37.4 °F 30.8 °F 26.6 °F 65% 30.28 in 10.0 mi NNW 9.2 mph - N/A   Clear
5:35 PM 35.6 °F 28.6 °F 24.8 °F 65% 30.28 in 10.0 mi NNW 9.2 mph - N/A   Clear
5:55 PM 35.6 °F 28.0 °F 26.6 °F 70% 30.28 in 10.0 mi NNW 10.4 mph - N/A   Clear
6:15 PM 35.6 °F 28.6 °F 26.6 °F 70% 30.28 in 10.0 mi North 9.2 mph - N/A   Clear
6:35 PM 35.6 °F 29.9 °F 26.6 °F 70% 30.28 in 10.0 mi NNW 6.9 mph - N/A   Clear
6:55 PM 33.8 °F 27.7 °F 24.8 °F 70% 30.28 in 10.0 mi North 6.9 mph - N/A   Clear
7:15 PM 33.8 °F 27.7 °F 24.8 °F 70% 30.28 in 10.0 mi NNW 6.9 mph - N/A   Clear
7:35 PM 33.8 °F 29.6 °F 24.8 °F 70% 30.28 in 10.0 mi North 4.6 mph - N/A   Clear
7:55 PM 33.8 °F 28.6 °F 24.8 °F 70% 30.28 in 10.0 mi NNW 5.8 mph - N/A   Clear
8:15 PM 33.8 °F 28.6 °F 24.8 °F 70% 30.28 in 10.0 mi NNW 5.8 mph - N/A   Clear
8:35 PM 33.8 °F 30.8 °F 24.8 °F 70% 30.28 in 10.0 mi NNW 3.5 mph - N/A   Clear
8:55 PM 33.8 °F 29.6 °F 24.8 °F 70% 30.28 in 10.0 mi NNW 4.6 mph - N/A   Clear
9:15 PM 33.8 °F 29.6 °F 23.0 °F 65% 30.29 in 10.0 mi NNW 4.6 mph - N/A   Clear
9:35 PM 33.8 °F 29.6 °F 24.8 °F 70% 30.29 in 10.0 mi NNW 4.6 mph - N/A   Clear
9:55 PM 33.8 °F - 24.8 °F 70% 30.29 in 10.0 mi Calm Calm - N/A   Clear
10:15 PM 33.8 °F - 24.8 °F 70% 30.29 in 10.0 mi Calm Calm - N/A   Clear
10:35 PM 33.8 °F 30.8 °F 23.0 °F 65% 30.29 in 10.0 mi North 3.5 mph - N/A   Clear
10:55 PM 33.8 °F 29.6 °F 23.0 °F 65% 30.29 in 10.0 mi NNW 4.6 mph - N/A   Clear
11:15 PM 33.8 °F 29.6 °F 24.8 °F 70% 30.29 in 10.0 mi North 4.6 mph - N/A   Clear
11:35 PM 33.8 °F 29.6 °F 23.0 °F 65% 30.29 in 10.0 mi North 4.6 mph - N/A   Clear
11:55 PM 33.8 °F 29.6 °F 23.0 °F 65% 30.30 in 10.0 mi NNW 4.6 mph - N/A   Clear